CW9792 Weather Reports


time (UTC)temp
C
wind
direction
speed
KPH
gust
KPH
rain 1hr
cm
rain 24hr
cm
rain mn
cm
humidity
%
barometer
mb
20260510080501 17 252 0.0 0.0 0.00 0.00 0.00 46 1011.5
20260510080001 17 228 0.0 0.0 0.00 0.00 0.00 46 1011.4
20260510075501 17 244 0.0 0.0 0.00 0.00 0.00 46 1011.3
20260510075100 17 222 0.0 0.0 0.00 0.00 0.00 46 1011.3
20260510074600 17 236 0.0 0.0 0.00 0.00 0.00 47 1011.4
20260510074103 17 238 0.0 0.0 0.00 0.00 0.00 48 1011.2
20260510073558 17 238 0.0 0.0 0.00 0.00 0.00 49 1011.1
20260510073116 16 238 0.0 0.0 0.00 0.00 0.00 49 1011.1
20260510072558 16 210 0.0 0.0 0.00 0.00 0.00 49 1011.1
20260510072059 16 209 0.0 0.0 0.00 0.00 0.00 49 1011.0
20260510071559 17 224 0.0 0.0 0.00 0.00 0.00 49 1011.0
20260510071058 16 216 0.0 0.0 0.00 0.00 0.00 49 1011.1
20260510070558 16 221 0.0 0.0 0.00 0.00 0.00 49 1011.1
20260510070106 16 213 0.0 0.0 0.00 0.00 0.00 49 1011.0
20260510065558 16 207 0.0 0.0 0.00 0.00 0.00 49 1011.0
20260510065057 17 209 0.0 0.0 0.00 0.00 0.00 49 1011.0
20260510064635 17 208 0.0 0.0 0.00 0.00 0.00 49 1011.1
20260510064056 17 227 0.0 0.0 0.00 0.00 0.00 49 1011.1
20260510063558 17 218 0.0 0.0 0.00 0.00 0.00 48 1011.0
20260510063057 17 224 0.0 0.0 0.00 0.00 0.00 48 1010.9
20260510062557 17 221 0.0 0.0 0.00 0.00 0.00 48 1011.0
20260510062056 17 217 0.0 0.0 0.00 0.00 0.00 47 1010.9
20260510061555 17 229 0.0 0.0 0.00 0.00 0.00 47 1010.9
20260510061055 18 229 0.0 0.0 0.00 0.00 0.00 46 1011.0
20260510060600 18 235 0.0 0.0 0.00 0.00 0.00 46 1011.1
20260510060056 18 236 0.0 0.0 0.00 0.00 0.00 46 1011.0
20260510055554 18 240 0.0 0.0 0.00 0.00 0.00 46 1011.1
20260510055053 18 247 0.0 0.0 0.00 0.00 0.00 46 1011.0
20260510054554 18 249 0.0 0.0 0.00 0.00 0.00 46 1011.1
20260510054052 18 255 0.0 0.0 0.00 0.00 0.00 47 1011.2
20260510053550 17 238 0.0 0.0 0.00 0.00 0.00 48 1011.2
20260510053049 17 238 0.0 0.0 0.00 0.00 0.00 48 1011.1
20260510052550 17 232 0.0 0.0 0.00 0.00 0.00 49 1011.2
20260510052050 17 236 0.0 0.0 0.00 0.00 0.00 49 1011.2
20260510051649 17 237 0.0 0.0 0.00 0.00 0.00 49 1011.2
20260510051048 17 232 0.0 0.0 0.00 0.00 0.00 48 1011.2
20260510050548 17 235 0.0 0.0 0.00 0.00 0.00 49 1011.2
20260510050052 17 236 0.0 0.0 0.00 0.00 0.00 49 1011.2
20260510045546 17 232 0.0 0.0 0.00 0.00 0.00 50 1011.2
20260510045045 17 232 0.0 0.0 0.00 0.00 0.00 50 1011.2
20260510044545 17 240 0.0 0.0 0.00 0.00 0.00 50 1011.2
20260510044042 16 225 0.0 0.0 0.00 0.00 0.00 52 1011.1
20260510043543 16 215 0.0 0.0 0.00 0.00 0.00 53 1011.1
20260510043044 16 207 0.0 0.0 0.00 0.00 0.00 53 1011.1
20260510042544 16 210 0.0 0.0 0.00 0.00 0.00 53 1011.2
20260510042040 16 197 0.0 0.0 0.00 0.00 0.00 53 1011.1
20260510041541 16 199 0.0 0.0 0.00 0.00 0.00 53 1011.1
20260510041040 16 202 0.0 0.0 0.00 0.00 0.00 52 1011.1
20260510040539 16 202 0.0 0.0 0.00 0.00 0.00 52 1011.1
20260510040045 16 223 0.0 0.0 0.00 0.00 0.00 52 1011.1
20260510035537 16 218 0.0 0.0 0.00 0.00 0.00 54 1011.1
20260510035041 16 198 0.0 0.0 0.00 0.00 0.00 55 1011.1
20260510034547 16 182 0.0 0.0 0.00 0.00 0.00 55 1011.1
20260510034037 16 182 0.0 0.0 0.00 0.00 0.00 55 1011.2
20260510033543 16 182 0.0 0.0 0.00 0.00 0.00 55 1011.2
20260510033040 16 182 0.0 0.0 0.00 0.00 0.00 55 1011.2
20260510032536 16 184 0.0 0.0 0.00 0.00 0.00 55 1011.2
20260510032036 16 184 0.0 0.0 0.00 0.00 0.00 54 1011.3
20260510031536 16 184 0.0 0.0 0.00 0.00 0.00 54 1011.3
20260510031036 16 184 0.0 0.0 0.00 0.00 0.00 54 1011.3
20260510030536 16 184 0.0 0.0 0.00 0.00 0.00 54 1011.2
20260510030035 16 186 0.0 0.0 0.00 0.00 0.00 53 1011.2
20260510025536 16 186 0.0 0.0 0.00 0.00 0.00 53 1011.3
20260510025035 17 187 0.0 0.0 0.00 0.00 0.00 52 1011.3
20260510024534 17 188 0.0 0.0 0.00 0.00 0.00 51 1011.2
20260510024033 17 188 0.0 0.0 0.00 0.00 0.00 50 1011.1
20260510023532 17 194 0.0 0.0 0.00 0.00 0.00 49 1011.1
20260510023032 17 194 0.0 0.0 0.00 0.00 0.00 48 1011.0
20260510022532 18 194 0.0 0.0 0.00 0.00 0.00 48 1011.0
20260510022031 18 194 0.0 0.0 0.00 0.00 0.00 48 1010.9
20260510021532 18 194 0.0 0.0 0.00 0.00 0.00 48 1010.9
20260510021028 18 194 0.0 0.0 0.00 0.00 0.00 47 1010.7
20260510020528 18 194 0.0 0.0 0.00 0.00 0.00 47 1010.7
20260510020030 18 194 0.0 0.0 0.00 0.00 0.00 46 1010.6
20260510015528 19 194 0.0 0.0 0.00 0.00 0.00 45 1010.5
20260510015025 20 232 0.0 0.0 0.00 0.00 0.00 44 1010.5
20260510014524 20 232 0.0 0.0 0.00 0.00 0.00 43 1010.4
20260510014024 20 232 0.0 0.0 0.00 0.00 0.00 42 1010.3
20260510013526 20 232 0.0 0.0 0.00 0.00 0.00 42 1010.2
20260510013022 20 232 0.0 0.0 0.00 0.00 0.00 41 1010.1
20260510012521 20 232 0.0 0.0 0.00 0.00 0.00 40 1010.0
20260510012023 20 232 0.0 0.0 0.00 0.00 0.00 40 1009.9
20260510011521 20 232 0.0 0.0 0.00 0.00 0.00 40 1009.8
20260510011020 20 232 0.0 0.0 0.00 0.00 0.00 40 1009.8
20260510010520 20 232 0.0 0.0 0.00 0.00 0.00 40 1009.7
20260510010021 21 232 0.0 0.0 0.00 0.00 0.00 39 1009.7
20260510005521 21 232 0.0 0.0 0.00 0.00 0.00 39 1009.6
20260510005022 21 232 0.0 0.0 0.00 0.00 0.00 38 1009.4
20260510004520 21 232 0.0 0.0 0.00 0.00 0.00 38 1009.4
20260510004019 21 232 0.0 0.0 0.00 0.00 0.00 37 1009.3
20260510003520 21 232 0.0 0.0 0.00 0.00 0.00 37 1009.2
20260510003021 21 232 0.0 0.0 0.00 0.00 0.00 37 1009.2
20260510002521 22 227 0.0 0.0 0.00 0.00 0.00 36 1009.1
20260510002019 22 226 0.0 0.0 0.00 0.00 0.00 36 1009.0
20260510001519 22 228 0.0 0.0 0.00 0.00 0.00 36 1009.0
20260510001019 22 224 0.0 0.0 0.00 0.00 0.00 36 1008.9
20260510000519 22 232 0.0 0.0 0.00 0.00 0.00 35 1008.9
20260510000020 22 242 0.0 0.0 0.00 0.00 0.00 35 1008.9
20260509235519 22 229 0.0 0.0 0.00 0.00 0.00 35 1008.9
20260509235017 23 223 0.0 0.0 0.00 0.00 0.00 34 1008.8
20260509234518 23 209 0.0 0.0 0.00 0.00 0.00 33 1008.7
20260509234018 23 227 0.0 0.0 0.00 0.00 0.00 32 1008.8
20260509233517 23 215 0.0 0.0 0.00 0.00 0.00 30 1008.7
20260509233020 23 246 0.0 0.0 0.00 0.00 0.00 30 1008.7
20260509232516 23 238 0.0 0.0 0.00 0.00 0.00 31 1008.8
20260509232016 23 277 0.0 0.0 0.00 0.00 0.00 29 1008.8
20260509231517 23 267 0.0 0.0 0.00 0.00 0.00 29 1008.8
20260509231016 23 280 0.0 0.0 0.00 0.00 0.00 29 1008.8
20260509230516 23 256 0.0 0.0 0.00 0.00 0.00 28 1008.8
20260509230016 23 265 0.0 0.0 0.00 0.00 0.00 29 1008.7
20260509225516 23 263 0.0 0.0 0.00 0.00 0.00 31 1008.6
20260509225019 23 260 0.0 0.0 0.00 0.00 0.00 30 1008.6
20260509224515 24 250 0.0 0.0 0.00 0.00 0.00 29 1008.5
20260509224015 24 228 0.0 0.0 0.00 0.00 0.00 30 1008.5
20260509223514 24 281 0.0 0.0 0.00 0.00 0.00 28 1008.5
20260509223015 24 285 0.0 0.0 0.00 0.00 0.00 30 1008.5
20260509222514 24 284 0.0 0.0 0.00 0.00 0.00 31 1008.5
20260509222014 24 284 0.0 3.2 0.00 0.00 0.00 28 1008.5
20260509221514 24 215 0.0 3.2 0.00 0.00 0.00 28 1008.4
20260509221014 24 262 0.0 0.0 0.00 0.00 0.00 29 1008.4
20260509220513 24 201 0.0 0.0 0.00 0.00 0.00 30 1008.5
20260509220014 24 241 0.0 0.0 0.00 0.00 0.00 29 1008.5
20260509215517 24 273 0.0 0.0 0.00 0.00 0.00 28 1008.4
20260509215013 24 240 0.0 0.0 0.00 0.00 0.00 28 1008.5
20260509214513 24 226 0.0 0.0 0.00 0.00 0.00 28 1008.4
20260509214015 24 290 0.0 0.0 0.00 0.00 0.00 27 1008.5
20260509213512 24 237 0.0 1.6 0.00 0.00 0.00 28 1008.5
20260509213014 24 262 0.0 1.6 0.00 0.00 0.00 26 1008.5
20260509212510 24 238 0.0 0.0 0.00 0.00 0.00 26 1008.5
20260509212013 24 293 0.0 0.0 0.00 0.00 0.00 25 1008.5
20260509211610 24 245 0.0 1.6 0.00 0.00 0.00 30 1008.6
20260509211010 24 213 0.0 1.6 0.00 0.00 0.00 31 1008.5
20260509210511 24 275 0.0 0.0 0.00 0.00 0.00 30 1008.6
20260509210010 23 277 0.0 0.0 0.00 0.00 0.00 29 1008.6
20260509205509 24 253 0.0 0.0 0.00 0.00 0.00 29 1008.6
20260509205008 24 240 0.0 0.0 0.00 0.00 0.00 30 1008.6
20260509204512 24 252 0.0 0.0 0.00 0.00 0.00 32 1008.7
20260509204008 24 199 0.0 8.0 0.00 0.00 0.00 31 1008.7
20260509203511 23 267 1.6 8.0 0.00 0.00 0.00 32 1008.7
20260509203022 23 294 0.0 0.0 0.00 0.00 0.00 29 1008.7
20260509202507 23 297 0.0 0.0 0.00 0.00 0.00 33 1008.8
20260509202007 23 231 0.0 1.6 0.00 0.00 0.00 29 1008.7
20260509201507 24 223 0.0 1.6 0.00 0.00 0.00 29 1008.9
20260509201006 23 223 0.0 0.0 0.00 0.00 0.00 31 1008.9
20260509200510 24 290 0.0 0.0 0.00 0.00 0.00 33 1009.0
20260509200007 24 280 0.0 0.0 0.00 0.00 0.00 29 1009.1
20260509195507 23 248 0.0 0.0 0.00 0.00 0.00 33 1009.1
20260509195005 23 297 0.0 1.6 0.00 0.00 0.00 31 1009.1
20260509194505 25 267 0.0 3.2 0.00 0.00 0.00 32 1009.1
20260509194004 24 182 0.0 3.2 0.00 0.00 0.00 35 1009.1
20260509193507 23 246 0.0 1.6 0.00 0.00 0.00 37 1009.2
20260509193002 23 288 0.0 1.6 0.00 0.00 0.00 32 1009.2
20260509192501 23 294 0.0 0.0 0.00 0.00 0.00 33 1009.2
20260509192105 23 227 0.0 0.0 0.00 0.00 0.00 39 1009.2
20260509191605 22 229 0.0 0.0 0.00 0.00 0.00 36 1009.2
20260509191102 22 289 0.0 0.0 0.00 0.00 0.00 37 1009.1
20260509190600 23 295 0.0 0.0 0.00 0.00 0.00 36 1009.2
20260509190100 23 280 0.0 1.6 0.00 0.00 0.00 36 1009.3
20260509185558 22 294 0.0 1.6 0.00 0.00 0.00 36 1009.2
20260509185058 22 298 0.0 0.0 0.00 0.00 0.00 40 1009.3
20260509184558 22 281 0.0 0.0 0.00 0.00 0.00 37 1009.4
20260509184056 22 254 0.0 0.0 0.00 0.00 0.00 36 1009.4
20260509183556 22 283 0.0 1.6 0.00 0.00 0.00 38 1009.4
20260509183104 22 153 0.0 1.6 0.00 0.00 0.00 40 1009.4
20260509182553 22 315 0.0 0.0 0.00 0.00 0.00 41 1009.4
20260509182053 22 295 0.0 0.0 0.00 0.00 0.00 39 1009.5
20260509181553 22 248 0.0 0.0 0.00 0.00 0.00 40 1009.6
20260509181053 22 252 0.0 0.0 0.00 0.00 0.00 40 1009.5
20260509180555 22 360 0.0 0.0 0.00 0.00 0.00 39 1009.6
20260509180051 21 288 0.0 0.0 0.00 0.00 0.00 39 1009.6
20260509175550 21 295 0.0 1.6 0.00 0.00 0.00 40 1009.6
20260509175053 21 289 0.0 1.6 0.00 0.00 0.00 41 1009.6
20260509174552 21 294 0.0 0.0 0.00 0.00 0.00 44 1009.6
20260509174049 21 254 0.0 0.0 0.00 0.00 0.00 42 1009.6
20260509173548 21 252 0.0 0.0 0.00 0.00 0.00 43 1009.6
20260509173054 21 222 0.0 1.6 0.00 0.00 0.00 43 1009.7
20260509172547 21 337 0.0 1.6 0.00 0.00 0.00 43 1009.6
20260509172046 21 261 0.0 0.0 0.00 0.00 0.00 45 1009.7
20260509171547 21 257 0.0 0.0 0.00 0.00 0.00 46 1009.7
20260509171045 20 261 0.0 0.0 0.00 0.00 0.00 45 1009.8
20260509170545 20 278 0.0 0.0 0.00 0.00 0.00 46 1009.8
20260509170046 20 276 0.0 0.0 0.00 0.00 0.00 45 1009.7
20260509165545 20 294 0.0 0.0 0.00 0.00 0.00 46 1009.8
20260509165044 20 290 0.0 1.6 0.00 0.00 0.00 45 1009.8
20260509164544 20 294 0.0 1.6 0.00 0.00 0.00 48 1009.8
20260509164044 20 290 0.0 0.0 0.00 0.00 0.00 45 1009.9
20260509163543 20 245 0.0 1.6 0.00 0.00 0.00 45 1009.8
20260509163048 20 302 0.0 0.0 0.00 0.00 0.00 48 1009.8
20260509162541 20 288 0.0 0.0 0.00 0.00 0.00 50 1009.7
20260509162043 19 287 0.0 0.0 0.00 0.00 0.00 49 1009.6
20260509161544 19 293 0.0 0.0 0.00 0.00 0.00 50 1009.6
20260509161039 18 296 0.0 0.0 0.00 0.00 0.00 50 1009.6
20260509160539 18 291 0.0 1.6 0.00 0.00 0.00 51 1009.6
20260509160041 18 221 0.0 1.6 0.00 0.00 0.00 51 1009.5
20260509155539 18 329 0.0 0.0 0.00 0.00 0.00 52 1009.3
20260509155037 18 242 0.0 0.0 0.00 0.00 0.00 52 1009.4
20260509154537 18 261 0.0 1.6 0.00 0.00 0.00 52 1009.4
20260509154036 18 303 0.0 1.6 0.00 0.00 0.00 53 1009.4
20260509153537 18 257 0.0 0.0 0.00 0.00 0.00 53 1009.5
20260509153047 18 294 0.0 0.0 0.00 0.00 0.00 52 1009.4
20260509152535 18 252 0.0 0.0 0.00 0.00 0.00 55 1009.3
20260509152035 18 227 0.0 0.0 0.00 0.00 0.00 54 1009.3
20260509151539 17 252 0.0 0.0 0.00 0.00 0.00 55 1009.3
20260509151035 17 210 0.0 6.4 0.00 0.00 0.00 55 1009.2
20260509150536 17 237 0.0 6.4 0.00 0.00 0.00 55 1009.3
20260509150040 17 256 0.0 1.6 0.00 0.00 0.00 57 1009.3
20260509145534 17 213 0.0 1.6 0.00 0.00 0.00 57 1009.2
20260509145030 17 273 0.0 0.0 0.00 0.00 0.00 57 1009.2
20260509144531 17 242 0.0 0.0 0.00 0.00 0.00 57 1009.1
20260509144029 16 248 0.0 0.0 0.00 0.00 0.00 56 1009.2
20260509143528 16 232 0.0 0.0 0.00 0.00 0.00 58 1009.1
20260509143029 16 271 0.0 0.0 0.00 0.00 0.00 58 1009.2
20260509142527 16 240 0.0 0.0 0.00 0.00 0.00 59 1009.2
20260509142027 16 248 0.0 0.0 0.00 0.00 0.00 58 1009.1
20260509141527 16 233 0.0 0.0 0.00 0.00 0.00 59 1009.1
20260509141027 16 221 0.0 0.0 0.00 0.00 0.00 59 1009.2
20260509140526 16 213 0.0 0.0 0.00 0.00 0.00 60 1009.1
20260509140033 15 193 0.0 0.0 0.00 0.00 0.00 59 1009.1
20260509135529 15 219 0.0 0.0 0.00 0.00 0.00 60 1009.1
20260509135025 15 221 0.0 0.0 0.00 0.00 0.00 60 1009.0
20260509134524 15 233 0.0 0.0 0.00 0.00 0.00 61 1009.0
20260509134024 15 240 0.0 0.0 0.00 0.00 0.00 60 1009.1
20260509133524 15 246 0.0 0.0 0.00 0.00 0.00 61 1009.1
20260509133024 15 222 0.0 0.0 0.00 0.00 0.00 60 1009.0
20260509132524 15 206 0.0 0.0 0.00 0.00 0.00 61 1009.0
20260509132023 15 244 0.0 0.0 0.00 0.00 0.00 61 1009.0
20260509131525 14 207 0.0 0.0 0.00 0.00 0.00 61 1009.0
20260509131023 14 213 0.0 0.0 0.00 0.00 0.00 61 1008.9
20260509130524 14 236 0.0 0.0 0.00 0.00 0.00 62 1008.9
20260509130023 14 209 0.0 0.0 0.00 0.00 0.00 62 1009.0
20260509125526 13 218 0.0 0.0 0.00 0.00 0.00 62 1009.0
20260509125023 13 240 0.0 0.0 0.00 0.00 0.00 62 1008.9
20260509124523 13 238 0.0 0.0 0.00 0.00 0.00 62 1008.8
20260509124021 13 236 0.0 0.0 0.00 0.00 0.00 61 1008.9
20260509123521 13 202 0.0 0.0 0.00 0.00 0.00 61 1008.8
20260509123022 13 229 0.0 0.0 0.00 0.00 0.00 61 1008.7
20260509122521 13 242 0.0 0.0 0.00 0.00 0.00 61 1008.6
20260509122023 13 243 0.0 0.0 0.00 0.00 0.00 61 1008.5
20260509121521 13 221 0.0 0.0 0.00 0.00 0.00 61 1008.4
20260509121021 13 206 0.0 0.0 0.00 0.00 0.00 61 1008.5
20260509120521 13 198 0.0 0.0 0.00 0.00 0.00 61 1008.4
20260509120025 13 198 0.0 0.0 0.00 0.00 0.00 60 1008.5
20260509115521 13 198 0.0 0.0 0.00 0.00 0.00 60 1008.4
20260509115019 13 198 0.0 0.0 0.00 0.00 0.00 60 1008.5
20260509114521 13 198 0.0 0.0 0.00 0.00 0.00 60 1008.4
20260509114020 13 198 0.0 0.0 0.00 0.00 0.00 60 1008.3
20260509113519 13 198 0.0 0.0 0.00 0.00 0.00 60 1008.1
20260509113019 13 219 0.0 0.0 0.00 0.00 0.00 60 1008.2
20260509112518 13 227 0.0 0.0 0.00 0.00 0.00 60 1008.1
20260509112018 13 240 0.0 0.0 0.00 0.00 0.00 59 1007.8
20260509111518 13 246 0.0 0.0 0.00 0.00 0.00 59 1007.9
20260509111019 13 234 0.0 0.0 0.00 0.00 0.00 59 1007.8
20260509110518 13 243 0.0 1.6 0.00 0.00 0.00 59 1007.8
20260509110017 14 257 0.0 1.6 0.00 0.00 0.00 58 1008.0
20260509105517 14 232 0.0 0.0 0.00 0.00 0.00 58 1007.8
20260509105018 14 223 0.0 0.0 0.00 0.00 0.00 57 1007.7
20260509104517 14 288 0.0 0.0 0.00 0.00 0.00 58 1008.1
20260509104016 13 244 0.0 0.0 0.00 0.00 0.00 59 1007.7
20260509103516 13 219 0.0 0.0 0.00 0.00 0.00 58 1007.2
20260509103015 13 188 0.0 0.0 0.00 0.00 0.00 58 1006.8
20260509102514 14 188 0.0 0.0 0.00 0.00 0.00 57 1006.8
20260509102015 14 189 0.0 0.0 0.00 0.00 0.00 57 1006.9
20260509101513 14 207 0.0 0.0 0.00 0.00 0.00 57 1006.9
20260509101015 14 219 0.0 0.0 0.00 0.00 0.00 56 1007.2
20260509100511 14 207 0.0 0.0 0.00 0.00 0.00 56 1007.2
20260509100010 15 209 0.0 0.0 0.00 0.00 0.00 56 1007.4
20260509095515 15 203 0.0 0.0 0.00 0.00 0.00 55 1007.5
20260509095007 15 217 0.0 0.0 0.00 0.00 0.00 55 1007.7
20260509094505 15 228 0.0 0.0 0.00 0.00 0.00 55 1007.9
20260509094004 15 238 0.0 0.0 0.00 0.00 0.00 55 1008.0
20260509093504 15 236 0.0 0.0 0.00 0.00 0.00 55 1008.0
20260509093006 15 218 0.0 0.0 0.00 0.00 0.00 54 1008.1
20260509092503 15 202 0.0 0.0 0.00 0.00 0.00 54 1008.0
20260509092004 15 221 0.0 0.0 0.00 0.00 0.00 53 1008.0
20260509091504 15 248 0.0 0.0 0.00 0.00 0.00 53 1008.1
20260509091002 15 229 0.0 0.0 0.00 0.00 0.00 53 1008.3
20260509090502 15 231 0.0 0.0 0.00 0.00 0.00 53 1008.2
20260509090001 15 227 0.0 0.0 0.00 0.00 0.00 52 1008.2
20260509085502 15 219 0.0 0.0 0.00 0.00 0.00 52 1008.3
20260509085100 15 229 0.0 0.0 0.00 0.00 0.00 52 1008.3
20260509084606 15 240 0.0 0.0 0.00 0.00 0.00 52 1008.2
20260509084104 15 234 0.0 0.0 0.00 0.00 0.00 51 1008.3
20260509083559 15 222 0.0 0.0 0.00 0.00 0.00 51 1008.3
20260509083102 15 236 0.0 0.0 0.00 0.00 0.00 52 1008.2
20260509082559 15 228 0.0 0.0 0.00 0.00 0.00 52 1008.0
20260509082059 15 209 0.0 0.0 0.00 0.00 0.00 51 1008.0
20260509081559 15 217 0.0 0.0 0.00 0.00 0.00 51 1008.0
20260509081059 15 191 0.0 0.0 0.00 0.00 0.00 50 1008.0